Location: El Manguito
(10.2358°N, 67.3634°W)
Time: 22:48:32
(UTC+00:00)

Aurora 2 Rocket - Pass Details

Date: 20 December 2025
Orbit: 385 x 1539 km, 25.0° (Epoch: 22 January)

Event Time Altitude Azimuth Distance (km) Brightness Sun altitude
Exits shadow 09:30:23 19° 320° (NW) 2,585 5.2 -17.0°
Maximum altitude 09:33:47 25° 354° (N) 2,117 5.0 -16.2°
Drops below altitude 10° 09:39:06 10° 47° (NE) 2,665 6.1 -15.0°
Sets 09:41:55 0° 61° (ENE) 3,406 6.9 -14.3°
